Barnwell, SC

7:39 PM EDT on September 20, 2019 (GMT -0400)
Barnwell County

Weather History for KBNL - August, 2019

Change the Weather History Date:

Thursday, August 22, 2019

  Actual Average (KOGB) Record (KOGB)
Temperature  
Mean Temperature 84 °F 80 °F  
Max Temperature 95 °F 89 °F 105 °F (1983)
Min Temperature 73 °F 70 °F 59 °F (1998)
Degree Days  
Heating Degree Days 0 0  
Month to date heating degree days 0  
Since 1 June heating degree days 1  
Since 1 July heating degree days 0  
Cooling Degree Days 19 15  
Month to date cooling degree days 348  
Year to date cooling degree days 1570  
Since 1 June cooling degree days 1267  
Growing Degree Days 34 (Base 50)    
Moisture  
Dew Point 72 °F    
Average Humidity 74    
Maximum Humidity 100    
Minimum Humidity 41    
Precipitation  
Precipitation 0.00 in 0.15 in 1.58 in (2010)
Month to date precipitation 3.84  
Year to date precipitation 31.87  
Sea Level Pressure  
Sea Level Pressure 30.05 in    
Wind  
Wind Speed 3 mph (SSW)    
Max Wind Speed 10 mph    
Max Gust Speed 15 mph    
Visibility 10 miles    
Events Thunderstorm    
T = Trace of Precipitation, MM = Missing Value Source: NWS Daily Summary

Daily Weather History Graph

Daily Weather History Graph

Search for Another Location

Airport or City:

Astronomy

Aug. 22, 2019 Rise Set
Actual Time 6:52 AM EDT 8:03 PM EDT
Civil Twilight 6:27 AM EDT 8:29 PM EDT
Nautical Twilight 5:56 AM EDT 8:59 PM EDT
Astronomical Twilight 5:24 AM EDT 9:31 PM EDT
Moon No Moon Rise 1:07 PM EDT (8/22)
Length of Visible Light 14h 02m
Length of Day
13h 10m
Waning Gibbous, 60% of the Moon is Illuminated
Aug 22
Waning Gibbous
Aug 23
Last Quarter
Aug 30
New
Sep 5
First Quarter
Sep 14
Full

Hourly Weather History & Observations

Time (EDT) Temp. Heat Index Dew Point Humidity Pressure Visibility Wind Dir Wind Speed Gust Speed Precip Events Conditions
12:15 AM 78.8 °F - 71.6 °F 78% 30.09 in 10.0 mi Calm Calm - N/A   Partly Cloudy
12:35 AM 77.0 °F - 71.6 °F 83% 30.09 in 10.0 mi SW 4.6 mph - N/A   Partly Cloudy
1:15 AM 77.0 °F - 71.6 °F 83% 30.09 in 10.0 mi SSW 4.6 mph - N/A   Clear
1:35 AM 77.0 °F - 71.6 °F 83% 30.09 in 10.0 mi SSW 3.5 mph - N/A   Partly Cloudy
1:55 AM 77.0 °F - 71.6 °F 83% 30.08 in 10.0 mi Calm Calm - N/A   Partly Cloudy
2:15 AM 77.0 °F - 71.6 °F 83% 30.08 in 10.0 mi South 3.5 mph - N/A   Partly Cloudy
2:35 AM 75.2 °F - 71.6 °F 89% 30.07 in 10.0 mi Calm Calm - N/A   Partly Cloudy
2:55 AM 75.2 °F - 71.6 °F 89% 30.06 in 10.0 mi South 3.5 mph - N/A   Partly Cloudy
3:15 AM 75.2 °F - 71.6 °F 89% 30.06 in 10.0 mi Calm Calm - N/A   Scattered Clouds
3:35 AM 75.2 °F - 71.6 °F 89% 30.05 in 10.0 mi South 5.8 mph - N/A   Scattered Clouds
3:55 AM 75.2 °F - 71.6 °F 89% 30.05 in 10.0 mi Calm Calm - N/A   Partly Cloudy
4:35 AM 75.2 °F - 73.4 °F 94% 30.05 in 10.0 mi Calm Calm - N/A   Scattered Clouds
4:55 AM 75.2 °F - 73.4 °F 94% 30.05 in 10.0 mi SSW 4.6 mph - N/A   Scattered Clouds
5:15 AM 75.2 °F - 73.4 °F 94% 30.04 in 10.0 mi SW 3.5 mph - N/A   Scattered Clouds
5:35 AM 75.2 °F - 73.4 °F 94% 30.05 in 10.0 mi SW 4.6 mph - N/A   Scattered Clouds
5:55 AM 73.4 °F - 73.4 °F 100% 30.06 in 10.0 mi WSW 3.5 mph - N/A   Scattered Clouds
6:35 AM 73.4 °F - 71.6 °F 94% 30.07 in 10.0 mi Calm Calm - N/A   Partly Cloudy
6:55 AM 73.4 °F - 71.6 °F 94% 30.08 in 10.0 mi Calm Calm - N/A   Clear
7:15 AM 73.4 °F - 71.6 °F 94% 30.08 in 10.0 mi Calm Calm - N/A   Clear
7:35 AM 75.2 °F - 73.4 °F 94% 30.08 in 10.0 mi Calm Calm - N/A   Clear
7:55 AM 75.2 °F - 73.4 °F 94% 30.09 in 10.0 mi SW 4.6 mph - N/A   Clear
8:15 AM 75.2 °F - 73.4 °F 94% 30.09 in 10.0 mi Calm Calm - N/A   Clear
8:35 AM 77.0 °F - 73.4 °F 89% 30.09 in 10.0 mi Calm Calm - N/A   Clear
8:55 AM 78.8 °F - 73.4 °F 83% 30.10 in 10.0 mi West 4.6 mph - N/A   Clear
9:35 AM 82.4 °F 88.2 °F 73.4 °F 74% 30.10 in 10.0 mi West 5.8 mph - N/A   Clear
9:55 AM 84.2 °F 90.9 °F 73.4 °F 70% 30.10 in 10.0 mi WNW 4.6 mph - N/A   Clear
11:15 AM 87.8 °F 93.8 °F 71.6 °F 58% 30.10 in 10.0 mi SW 8.1 mph - N/A   Clear
11:35 AM 89.6 °F 96.2 °F 71.6 °F 55% 30.10 in 10.0 mi Calm Calm 11.5 mph N/A   Clear
11:55 AM 89.6 °F 94.7 °F 69.8 °F 52% 30.09 in 10.0 mi Calm Calm - N/A   Clear
12:15 PM 89.6 °F 94.7 °F 69.8 °F 52% 30.09 in 10.0 mi Calm Calm 12.7 mph N/A   Partly Cloudy
12:35 PM 89.6 °F 94.7 °F 69.8 °F 52% 30.08 in 10.0 mi WSW 6.9 mph - N/A   Clear
12:55 PM 91.4 °F 95.4 °F 68.0 °F 46% 30.07 in 10.0 mi West 6.9 mph 13.8 mph N/A   Partly Cloudy
1:15 PM 91.4 °F 95.4 °F 68.0 °F 46% 30.06 in 10.0 mi Variable 5.8 mph - N/A   Clear
1:35 PM 93.2 °F 97.7 °F 68.0 °F 44% 30.05 in 10.0 mi WSW 5.8 mph - N/A   Partly Cloudy
1:55 PM 93.2 °F 97.7 °F 68.0 °F 44% 30.05 in 10.0 mi SSW 8.1 mph - N/A Thunderstorm Clear
2:15 PM 93.2 °F 97.7 °F 68.0 °F 44% 30.04 in 10.0 mi SSW 4.6 mph - N/A   Clear
2:55 PM 95.0 °F 99.5 °F 68.0 °F 41% 30.03 in 10.0 mi South 10.4 mph - N/A   Scattered Clouds
3:55 PM 87.8 °F 93.8 °F 71.6 °F 58% 30.01 in 10.0 mi South 9.2 mph 15.0 mph N/A   Partly Cloudy
4:15 PM 87.8 °F 95.6 °F 73.4 °F 62% 30.01 in 10.0 mi South 9.2 mph 15.0 mph N/A   Clear
4:35 PM 86.0 °F 93.4 °F 73.4 °F 66% 30.01 in 10.0 mi SSE 9.2 mph - N/A   Clear
5:15 PM 86.0 °F 93.4 °F 73.4 °F 66% 30.01 in 10.0 mi SSE 8.1 mph - N/A   Clear
5:35 PM 86.0 °F 93.4 °F 73.4 °F 66% 30.00 in 10.0 mi South 6.9 mph - N/A   Clear
5:55 PM 87.8 °F 95.6 °F 73.4 °F 62% 30.00 in 10.0 mi South 8.1 mph - N/A   Clear
6:15 PM 87.8 °F 95.6 °F 73.4 °F 62% 30.00 in 10.0 mi SSE 9.2 mph - N/A   Clear
6:35 PM 86.0 °F 91.8 °F 71.6 °F 62% 30.00 in 10.0 mi South 8.1 mph 13.8 mph N/A   Clear
6:55 PM 86.0 °F 91.8 °F 71.6 °F 62% 30.00 in 10.0 mi SSE 6.9 mph - N/A   Clear
7:15 PM 84.2 °F 89.6 °F 71.6 °F 66% 30.00 in 10.0 mi SSE 6.9 mph - N/A   Clear
7:35 PM 82.4 °F 87.2 °F 71.6 °F 70% 30.00 in 10.0 mi South 8.1 mph - N/A   Clear
7:55 PM 82.4 °F 87.2 °F 71.6 °F 70% 30.00 in 10.0 mi Variable 5.8 mph - N/A   Clear
8:15 PM 80.6 °F 84.6 °F 71.6 °F 74% 30.01 in 10.0 mi SSE 6.9 mph - N/A   Clear
8:35 PM 80.6 °F 84.6 °F 71.6 °F 74% 30.01 in 10.0 mi South 6.9 mph - N/A   Clear
8:55 PM 80.6 °F 84.6 °F 71.6 °F 74% 30.02 in 10.0 mi Calm Calm - N/A   Clear
9:15 PM 78.8 °F - 71.6 °F 78% 30.03 in 10.0 mi South 4.6 mph - N/A   Clear
9:35 PM 78.8 °F - 71.6 °F 78% 30.03 in 10.0 mi Calm Calm - N/A   Clear
9:55 PM 78.8 °F - 71.6 °F 78% 30.04 in 10.0 mi Calm Calm - N/A   Clear
10:15 PM 78.8 °F - 71.6 °F 78% 30.05 in 10.0 mi Calm Calm - N/A   Clear
10:35 PM 78.8 °F - 71.6 °F 78% 30.06 in 10.0 mi Calm Calm - N/A   Clear
10:55 PM 77.0 °F - 71.6 °F 83% 30.05 in 10.0 mi SSE 3.5 mph - N/A   Clear
11:15 PM 77.0 °F - 71.6 °F 83% 30.05 in 10.0 mi Calm Calm - N/A   Clear
11:55 PM 77.0 °F - 71.6 °F 83% 30.06 in 10.0 mi South 4.6 mph - N/A   Clear